Location: Newark
(15.4608°S, 41.1635°W)
Time: 20:10:56
(UTC+00:00)

Vanguard 2 Rocket - Visible Passes

Search period start: 29 July 2021 00:00
Search period end: 08 August 2021 00:00
Orbit: 555 x 3325 km, 32.9° (Epoch: 28 July)

Date Brightness Start Highest point End Pass type
(mag) Time Alt. Az. Time Alt. Az. Time Alt. Az.
29 Jul 10.6 01:31:17 10° WSW 01:37:52 23° SW 01:37:52 23° SW visible
29 Jul 8.9 06:26:30 21° NNE 06:26:30 21° NNE 06:28:19 10° NNE visible
29 Jul 9.9 22:05:37 10° W 22:24:08 56° SSW 22:35:42 30° SE visible
30 Jul 10.1 00:27:22 10° WSW 00:41:29 38° SSW 00:41:29 38° SSW visible
30 Jul 9.8 21:03:46 10° WNW 21:20:53 65° SSW 21:39:17 14° SE visible
30 Jul 9.8 23:23:47 10° WSW 23:42:46 45° S 23:45:04 44° S visible
31 Jul 10.7 01:46:01 10° WSW 01:50:52 20° SW 01:50:52 20° SW visible
31 Jul 9.2 06:39:55 15° N 06:39:55 15° N 06:41:05 10° N visible
31 Jul 9.9 22:20:50 10° W 22:39:08 49° SSW 22:48:39 33° SE visible
01 Aug 10.2 00:42:29 10° WSW 00:54:26 35° SW 00:54:26 35° SW visible
01 Aug 9.9 21:18:39 10° W 21:35:37 54° SSW 21:52:12 17° SE visible
01 Aug 9.8 23:39:06 10° WSW 23:57:59 44° S 23:57:59 44° S visible
02 Aug 10.8 02:00:22 10° WSW 02:03:46 17° SW 02:03:46 17° SW visible
02 Aug 9.9 22:36:09 10° WSW 22:54:25 45° S 23:01:32 36° SE visible
03 Aug 10.3 00:57:10 10° WSW 01:07:19 33° SW 01:07:19 33° SW visible
03 Aug 10.0 21:33:48 10° W 21:50:43 48° S 22:05:04 21° SE visible
03 Aug 9.9 23:54:06 10° WSW 00:10:51 45° S 00:10:51 45° S visible
04 Aug 10.9 02:14:27 10° WSW 02:16:38 15° SW 02:16:38 15° SW visible
04 Aug 9.9 20:32:11 10° W 20:47:18 52° SSW 21:07:11 10° ESE visible
04 Aug 9.8 22:51:21 10° WSW 23:09:50 45° S 23:14:24 41° SSE visible
05 Aug 10.4 01:11:29 10° WSW 01:20:10 31° SW 01:20:10 31° SW visible
05 Aug 10.0 21:49:02 10° WSW 22:06:03 45° S 22:17:56 26° SE visible
06 Aug 9.9 00:08:43 10° WSW 00:23:44 47° SSW 00:23:44 47° SSW visible
06 Aug 11.0 02:28:29 10° WSW 02:29:31 12° WSW 02:29:31 12° WSW visible
06 Aug 10.0 20:47:18 10° WSW 21:02:28 46° S 21:21:31 11° ESE visible
06 Aug 9.7 23:06:14 10° WSW 23:25:09 48° S 23:27:17 47° SSE visible
07 Aug 10.5 01:25:34 10° WSW 01:33:05 29° SW 01:33:05 29° SW visible
07 Aug 9.9 22:04:07 10° WSW 22:21:27 45° S 22:30:53 31° SE visible
